Time,TemperatureF,DewpointF,PressureIn,WindDirection,WindDirectionDegrees,WindSpeedMPH,WindSpeedGustMPH,Humidity,HourlyPrecipIn,Conditions,Clouds,dailyrainin,SoftwareType,DateUTC
2013-05-17 00:01:00,62.8,46.8,29.80,WNW,298,0.0,0.0,43,0.00,,,0.00,meteohub,2013-05-17 04:01:00,
2013-05-17 00:02:00,62.4,46.8,29.80,WNW,298,0.0,0.0,44,0.00,,,0.00,meteohub,2013-05-17 04:02:00,
2013-05-17 00:07:00,61.0,46.8,29.81,WNW,298,1.0,0.0,49,0.00,,,0.00,meteohub,2013-05-17 04:07:00,
2013-05-17 00:12:00,60.4,46.8,29.81,WNW,298,0.0,3.0,48,0.00,,,0.00,meteohub,2013-05-17 04:12:00,
2013-05-17 00:17:00,60.4,46.8,29.82,WNW,298,0.0,3.0,48,0.00,,,0.00,meteohub,2013-05-17 04:17:00,
2013-05-17 00:22:00,60.4,46.8,29.82,WNW,298,0.0,3.0,50,0.00,,,0.00,meteohub,2013-05-17 04:22:00,
2013-05-17 00:27:00,60.4,46.6,29.83,WNW,298,0.0,2.0,52,0.00,,,0.00,meteohub,2013-05-17 04:27:00,
2013-05-17 00:32:00,60.3,46.6,29.83,SE,134,0.0,1.0,53,0.00,,,0.00,meteohub,2013-05-17 04:32:00,
2013-05-17 00:37:00,60.1,46.6,29.83,SE,126,0.0,5.0,55,0.00,,,0.00,meteohub,2013-05-17 04:37:00,
2013-05-17 00:42:00,59.9,46.6,29.83,ESE,107,1.0,5.0,57,0.00,,,0.00,meteohub,2013-05-17 04:42:00,
2013-05-17 00:47:00,59.7,46.6,29.83,SE,126,0.0,5.0,58,0.00,,,0.00,meteohub,2013-05-17 04:47:00,
2013-05-17 00:52:00,59.4,46.6,29.83,East,101,0.0,5.0,59,0.00,,,0.00,meteohub,2013-05-17 04:52:00,
2013-05-17 00:57:00,59.0,46.4,29.83,SE,130,0.0,8.0,59,0.00,,,0.00,meteohub,2013-05-17 04:57:00,
2013-05-17 01:02:00,59.0,46.4,29.84,ESE,107,3.0,8.0,60,0.00,,,0.00,meteohub,2013-05-17 05:02:00,
2013-05-17 01:07:00,58.6,46.4,29.84,ESE,122,2.0,8.0,60,0.00,,,0.00,meteohub,2013-05-17 05:07:00,
2013-05-17 01:12:00,58.5,46.4,29.84,ESE,108,0.0,6.0,60,0.00,,,0.00,meteohub,2013-05-17 05:12:00,
2013-05-17 01:17:00,58.3,46.4,29.84,ESE,123,0.0,6.0,60,0.00,,,0.00,meteohub,2013-05-17 05:17:00,
2013-05-17 01:22:00,57.9,46.4,29.84,SE,126,4.0,6.0,61,0.00,,,0.00,meteohub,2013-05-17 05:22:00,
2013-05-17 01:27:00,57.7,46.4,29.84,ESE,123,0.0,5.0,61,0.00,,,0.00,meteohub,2013-05-17 05:27:00,
2013-05-17 01:32:00,57.6,46.4,29.84,ESE,123,2.0,5.0,61,0.00,,,0.00,meteohub,2013-05-17 05:32:00,
2013-05-17 01:37:00,57.4,46.2,29.84,ESE,123,2.0,5.0,62,0.00,,,0.00,meteohub,2013-05-17 05:37:00,
2013-05-17 01:42:00,57.0,46.2,29.84,ESE,123,4.0,5.0,62,0.00,,,0.00,meteohub,2013-05-17 05:42:00,
2013-05-17 01:47:00,56.8,46.2,29.84,ESE,123,0.0,4.0,63,0.00,,,0.00,meteohub,2013-05-17 05:47:00,
2013-05-17 01:52:00,56.7,46.2,29.84,ESE,123,0.0,4.0,63,0.00,,,0.00,meteohub,2013-05-17 05:52:00,
2013-05-17 01:57:00,56.5,46.2,29.84,ESE,121,0.0,4.0,64,0.00,,,0.00,meteohub,2013-05-17 05:57:00,
2013-05-17 02:02:00,56.1,46.2,29.84,ESE,121,0.0,3.0,65,0.00,,,0.00,meteohub,2013-05-17 06:02:00,
2013-05-17 02:07:00,55.9,46.2,29.84,ESE,121,0.0,3.0,65,0.00,,,0.00,meteohub,2013-05-17 06:07:00,
2013-05-17 02:12:00,55.6,46.2,29.84,ESE,121,0.0,0.0,66,0.00,,,0.00,meteohub,2013-05-17 06:12:00,
2013-05-17 02:18:00,55.2,46.2,29.85,ESE,121,0.0,0.0,67,0.00,,,0.00,meteohub,2013-05-17 06:18:00,
2013-05-17 02:23:00,54.9,46.2,29.85,ESE,121,0.0,0.0,67,0.00,,,0.00,meteohub,2013-05-17 06:23:00,
2013-05-17 02:28:00,54.7,46.2,29.85,ESE,121,0.0,0.0,68,0.00,,,0.00,meteohub,2013-05-17 06:28:00,
2013-05-17 02:33:00,54.3,46.2,29.85,ESE,121,0.0,0.0,69,0.00,,,0.00,meteohub,2013-05-17 06:33:00,
2013-05-17 02:38:00,54.1,46.0,29.86,ESE,121,0.0,0.0,69,0.00,,,0.00,meteohub,2013-05-17 06:38:00,
2013-05-17 02:43:00,53.8,46.0,29.86,ESE,121,0.0,0.0,70,0.00,,,0.00,meteohub,2013-05-17 06:43:00,
2013-05-17 02:48:00,53.6,46.0,29.86,ESE,121,0.0,0.0,70,0.00,,,0.00,meteohub,2013-05-17 06:48:00,
2013-05-17 02:53:00,53.2,46.0,29.86,ESE,121,0.0,0.0,71,0.00,,,0.00,meteohub,2013-05-17 06:53:00,
2013-05-17 02:58:00,53.1,46.0,29.87,ESE,121,0.0,0.0,72,0.00,,,0.00,meteohub,2013-05-17 06:58:00,
2013-05-17 03:03:00,52.9,46.0,29.87,ESE,121,0.0,0.0,72,0.00,,,0.00,meteohub,2013-05-17 07:03:00,
2013-05-17 03:08:00,52.5,46.0,29.87,ESE,121,0.0,0.0,73,0.00,,,0.00,meteohub,2013-05-17 07:08:00,
2013-05-17 03:13:00,52.3,45.9,29.87,ESE,121,0.0,0.0,74,0.00,,,0.00,meteohub,2013-05-17 07:13:00,
2013-05-17 03:18:00,52.0,45.9,29.87,ESE,121,0.0,0.0,74,0.00,,,0.00,meteohub,2013-05-17 07:18:00,
2013-05-17 03:23:00,51.6,45.9,29.87,ESE,121,0.0,0.0,74,0.00,,,0.00,meteohub,2013-05-17 07:23:00,
2013-05-17 03:28:00,51.4,45.9,29.87,ESE,121,0.0,0.0,75,0.00,,,0.00,meteohub,2013-05-17 07:28:00,
2013-05-17 03:33:00,51.3,45.9,29.87,ESE,121,0.0,0.0,76,0.00,,,0.00,meteohub,2013-05-17 07:33:00,
2013-05-17 03:38:00,50.7,45.9,29.87,ESE,121,0.0,0.0,77,0.00,,,0.00,meteohub,2013-05-17 07:38:00,
2013-05-17 03:43:00,50.5,45.9,29.87,ESE,121,0.0,0.0,78,0.00,,,0.00,meteohub,2013-05-17 07:43:00,
2013-05-17 03:48:00,50.2,45.7,29.87,ESE,121,0.0,0.0,79,0.00,,,0.00,meteohub,2013-05-17 07:48:00,
2013-05-17 03:53:00,49.8,45.7,29.87,ESE,121,0.0,0.0,79,0.00,,,0.00,meteohub,2013-05-17 07:53:00,
2013-05-17 03:58:00,49.6,45.7,29.88,ESE,121,0.0,0.0,80,0.00,,,0.00,meteohub,2013-05-17 07:58:00,
2013-05-17 04:03:00,49.5,45.7,29.88,ESE,121,0.0,0.0,80,0.00,,,0.00,meteohub,2013-05-17 08:03:00,
2013-05-17 04:08:00,49.3,45.7,29.88,ESE,121,0.0,0.0,81,0.00,,,0.00,meteohub,2013-05-17 08:08:00,
2013-05-17 04:13:00,48.9,45.7,29.88,ESE,121,0.0,0.0,81,0.00,,,0.00,meteohub,2013-05-17 08:13:00,
2013-05-17 04:18:00,48.7,45.5,29.88,ESE,121,0.0,0.0,82,0.00,,,0.00,meteohub,2013-05-17 08:18:00,
2013-05-17 04:23:00,48.6,45.5,29.89,ESE,121,0.0,0.0,82,0.00,,,0.00,meteohub,2013-05-17 08:23:00,
2013-05-17 04:28:00,48.4,45.5,29.89,ESE,121,0.0,0.0,83,0.00,,,0.00,meteohub,2013-05-17 08:28:00,
2013-05-17 04:33:00,48.0,45.5,29.90,ESE,121,0.0,0.0,83,0.00,,,0.00,meteohub,2013-05-17 08:33:00,
2013-05-17 04:38:00,47.8,45.5,29.90,ESE,121,0.0,0.0,83,0.00,,,0.00,meteohub,2013-05-17 08:38:00,
2013-05-17 04:43:00,47.7,45.3,29.90,ESE,121,0.0,0.0,84,0.00,,,0.00,meteohub,2013-05-17 08:43:00,
2013-05-17 04:48:00,47.3,45.3,29.89,ESE,121,0.0,0.0,85,0.00,,,0.00,meteohub,2013-05-17 08:48:00,
2013-05-17 04:53:00,47.1,45.3,29.90,ESE,121,0.0,0.0,85,0.00,,,0.00,meteohub,2013-05-17 08:53:00,
2013-05-17 04:58:00,46.9,45.3,29.90,ESE,121,0.0,0.0,85,0.00,,,0.00,meteohub,2013-05-17 08:58:00,
2013-05-17 05:03:00,46.9,45.3,29.90,ESE,121,0.0,0.0,86,0.00,,,0.00,meteohub,2013-05-17 09:03:00,
2013-05-17 05:08:00,46.9,45.1,29.90,ESE,121,0.0,0.0,86,0.00,,,0.00,meteohub,2013-05-17 09:08:00,
2013-05-17 05:13:00,46.9,45.1,29.91,ESE,121,0.0,0.0,86,0.00,,,0.00,meteohub,2013-05-17 09:13:00,
2013-05-17 05:18:00,46.9,45.1,29.91,ESE,121,0.0,0.0,86,0.00,,,0.00,meteohub,2013-05-17 09:18:00,
2013-05-17 05:23:00,46.9,45.1,29.91,ESE,121,0.0,0.0,85,0.00,,,0.00,meteohub,2013-05-17 09:23:00,
2013-05-17 05:28:00,46.8,45.1,29.91,ESE,121,0.0,0.0,85,0.00,,,0.00,meteohub,2013-05-17 09:28:00,
2013-05-17 05:33:00,46.8,45.0,29.91,ESE,121,0.0,0.0,85,0.00,,,0.00,meteohub,2013-05-17 09:33:00,
2013-05-17 05:38:00,46.8,45.0,29.91,ESE,121,0.0,0.0,85,0.00,,,0.00,meteohub,2013-05-17 09:38:00,
2013-05-17 05:43:00,46.8,45.0,29.92,ESE,121,0.0,0.0,85,0.00,,,0.00,meteohub,2013-05-17 09:43:00,
2013-05-17 05:48:00,46.8,45.0,29.93,ESE,121,0.0,0.0,85,0.00,,,0.00,meteohub,2013-05-17 09:48:00,
2013-05-17 05:53:00,46.8,45.0,29.93,ESE,121,0.0,0.0,85,0.00,,,0.00,meteohub,2013-05-17 09:53:00,
2013-05-17 05:58:00,46.9,45.0,29.94,ESE,121,0.0,0.0,86,0.00,,,0.00,meteohub,2013-05-17 09:58:00,
2013-05-17 06:03:00,46.9,45.0,29.94,ESE,121,0.0,0.0,86,0.00,,,0.00,meteohub,2013-05-17 10:03:00,
2013-05-17 06:08:00,46.9,45.0,29.94,ESE,121,0.0,0.0,86,0.00,,,0.00,meteohub,2013-05-17 10:08:00,
2013-05-17 06:13:00,47.1,45.0,29.94,ESE,121,0.0,0.0,86,0.00,,,0.00,meteohub,2013-05-17 10:13:00,
2013-05-17 06:18:00,47.5,45.0,29.95,ESE,121,0.0,0.0,85,0.00,,,0.00,meteohub,2013-05-17 10:18:00,
2013-05-17 06:23:00,47.7,44.8,29.96,ESE,121,0.0,0.0,85,0.00,,,0.00,meteohub,2013-05-17 10:23:00,
2013-05-17 06:28:00,47.8,44.8,29.96,ESE,121,0.0,0.0,85,0.00,,,0.00,meteohub,2013-05-17 10:28:00,
2013-05-17 06:33:00,48.4,44.8,29.96,ESE,121,0.0,0.0,84,0.00,,,0.00,meteohub,2013-05-17 10:33:00,
2013-05-17 06:38:00,48.7,44.8,29.96,ESE,121,0.0,0.0,84,0.00,,,0.00,meteohub,2013-05-17 10:38:00,
2013-05-17 06:43:00,48.9,44.8,29.96,ESE,121,0.0,0.0,83,0.00,,,0.00,meteohub,2013-05-17 10:43:00,
2013-05-17 06:48:00,49.5,44.6,29.96,ESE,121,0.0,0.0,82,0.00,,,0.00,meteohub,2013-05-17 10:48:00,
2013-05-17 06:54:00,50.2,44.6,29.96,ESE,121,1.0,0.0,81,0.00,,,0.00,meteohub,2013-05-17 10:54:00,
2013-05-17 06:59:00,50.5,44.6,29.96,ESE,121,0.0,1.0,79,0.00,,,0.00,meteohub,2013-05-17 10:59:00,
2013-05-17 07:04:00,51.3,44.6,29.97,ESE,121,0.0,2.0,78,0.00,,,0.00,meteohub,2013-05-17 11:04:00,
2013-05-17 07:09:00,51.6,44.6,29.97,North,350,0.0,2.0,76,0.00,,,0.00,meteohub,2013-05-17 11:09:00,
2013-05-17 07:14:00,52.0,44.6,29.97,North,9,4.0,4.0,74,0.00,,,0.00,meteohub,2013-05-17 11:14:00,
2013-05-17 07:19:00,52.3,44.4,29.98,SSE,165,0.0,6.0,74,0.00,,,0.00,meteohub,2013-05-17 11:19:00,
2013-05-17 07:24:00,52.5,44.4,29.98,SSE,165,2.0,6.0,73,0.00,,,0.00,meteohub,2013-05-17 11:24:00,
2013-05-17 07:29:00,52.5,44.4,29.98,SSE,155,0.0,6.0,72,0.00,,,0.00,meteohub,2013-05-17 11:29:00,
2013-05-17 07:34:00,52.9,44.4,29.98,West,259,0.0,5.0,72,0.00,,,0.00,meteohub,2013-05-17 11:34:00,
2013-05-17 07:39:00,53.1,44.4,29.98,SE,132,5.0,5.0,72,0.00,,,0.00,meteohub,2013-05-17 11:39:00,
2013-05-17 07:44:00,53.1,44.6,29.99,ESE,119,2.0,9.0,70,0.00,,,0.00,meteohub,2013-05-17 11:44:00,
2013-05-17 07:49:00,53.2,44.6,29.99,SE,130,5.0,9.0,70,0.00,,,0.00,meteohub,2013-05-17 11:49:00,
2013-05-17 07:54:00,53.4,44.6,29.99,SSE,168,0.0,9.0,69,0.00,,,0.00,meteohub,2013-05-17 11:54:00,
2013-05-17 07:59:00,53.8,44.6,29.99,ESE,109,0.0,6.0,68,0.00,,,0.00,meteohub,2013-05-17 11:59:00,
2013-05-17 08:04:00,53.8,44.6,29.99,South,169,0.0,6.0,67,0.00,,,0.00,meteohub,2013-05-17 12:04:00,
2013-05-17 08:09:00,54.0,44.6,29.99,SE,137,0.0,8.0,67,0.00,,,0.00,meteohub,2013-05-17 12:09:00,
2013-05-17 08:14:00,54.1,44.6,29.99,SE,137,1.0,8.0,66,0.00,,,0.00,meteohub,2013-05-17 12:14:00,
2013-05-17 08:19:00,54.3,44.6,30.00,ENE,71,1.0,8.0,65,0.00,,,0.00,meteohub,2013-05-17 12:19:00,
2013-05-17 08:24:00,54.3,44.8,30.00,ESE,114,0.0,5.0,66,0.00,,,0.00,meteohub,2013-05-17 12:24:00,
2013-05-17 08:29:00,54.7,44.8,30.00,SSE,148,0.0,5.0,65,0.00,,,0.00,meteohub,2013-05-17 12:29:00,
2013-05-17 08:34:00,55.0,44.8,30.00,SSE,163,1.0,7.0,65,0.00,,,0.00,meteohub,2013-05-17 12:34:00,
2013-05-17 08:39:00,55.6,44.8,30.00,SSE,167,3.0,7.0,63,0.00,,,0.00,meteohub,2013-05-17 12:39:00,
2013-05-17 08:44:00,55.8,44.8,30.00,ENE,71,0.0,7.0,63,0.00,,,0.00,meteohub,2013-05-17 12:44:00,
2013-05-17 08:49:00,56.3,44.8,30.00,SSE,162,0.0,6.0,63,0.00,,,0.00,meteohub,2013-05-17 12:49:00,
2013-05-17 08:54:00,56.7,45.0,30.00,SE,134,4.0,6.0,61,0.00,,,0.00,meteohub,2013-05-17 12:54:00,
2013-05-17 08:59:00,56.8,45.0,30.00,NW,311,4.0,4.0,61,0.00,,,0.00,meteohub,2013-05-17 12:59:00,
2013-05-17 09:04:00,57.4,45.0,30.00,NNE,18,0.0,10.0,61,0.00,,,0.00,meteohub,2013-05-17 13:04:00,
2013-05-17 09:09:00,57.9,45.0,30.00,ENE,71,0.0,10.0,59,0.00,,,0.00,meteohub,2013-05-17 13:09:00,
2013-05-17 09:14:00,58.6,45.0,30.00,SE,136,0.0,10.0,57,0.00,,,0.00,meteohub,2013-05-17 13:14:00,
2013-05-17 09:19:00,59.0,45.0,30.00,NNE,30,1.0,6.0,58,0.00,,,0.00,meteohub,2013-05-17 13:19:00,
2013-05-17 09:24:00,59.0,45.0,30.00,SE,145,3.0,6.0,58,0.00,,,0.00,meteohub,2013-05-17 13:24:00,
2013-05-17 09:29:00,59.2,45.0,30.00,ESE,103,2.0,6.0,58,0.00,,,0.00,meteohub,2013-05-17 13:29:00,
2013-05-17 09:34:00,59.0,45.0,29.99,SE,135,5.0,6.0,57,0.00,,,0.00,meteohub,2013-05-17 13:34:00,
2013-05-17 09:39:00,59.0,45.0,30.00,SE,132,2.0,8.0,59,0.00,,,0.00,meteohub,2013-05-17 13:39:00,
2013-05-17 09:44:00,59.4,45.1,30.00,SE,140,0.0,8.0,57,0.00,,,0.00,meteohub,2013-05-17 13:44:00,
2013-05-17 09:49:00,59.9,45.1,29.99,SSE,148,1.0,8.0,57,0.00,,,0.00,meteohub,2013-05-17 13:49:00,
2013-05-17 09:54:00,60.4,45.1,29.99,North,0,0.0,7.0,57,0.00,,,0.00,meteohub,2013-05-17 13:54:00,
2013-05-17 09:59:00,61.0,45.1,29.99,SE,129,1.0,7.0,56,0.00,,,0.00,meteohub,2013-05-17 13:59:00,
2013-05-17 10:04:00,61.2,45.3,30.00,SE,144,6.0,7.0,56,0.00,,,0.00,meteohub,2013-05-17 14:04:00,
2013-05-17 10:09:00,61.0,45.3,30.00,SE,138,0.0,7.0,55,0.00,,,0.00,meteohub,2013-05-17 14:09:00,
2013-05-17 10:14:00,61.2,45.3,30.01,SE,128,1.0,7.0,55,0.00,,,0.00,meteohub,2013-05-17 14:14:00,
2013-05-17 10:19:00,61.5,45.5,30.01,SE,136,2.0,8.0,54,0.00,,,0.00,meteohub,2013-05-17 14:19:00,
2013-05-17 10:24:00,61.7,45.5,30.01,ESE,106,0.0,8.0,55,0.00,,,0.00,meteohub,2013-05-17 14:24:00,
2013-05-17 10:29:00,62.2,45.5,30.01,SE,130,1.0,8.0,52,0.00,,,0.00,meteohub,2013-05-17 14:29:00,
2013-05-17 10:34:00,62.4,45.7,30.01,ESE,113,1.0,6.0,52,0.00,,,0.00,meteohub,2013-05-17 14:34:00,
2013-05-17 10:39:00,62.6,45.7,30.02,SSW,206,1.0,6.0,54,0.00,,,0.00,meteohub,2013-05-17 14:39:00,
2013-05-17 10:44:00,62.8,45.7,30.01,NNW,337,0.0,6.0,52,0.00,,,0.00,meteohub,2013-05-17 14:44:00,
2013-05-17 10:49:00,63.0,45.7,30.01,SSE,152,0.0,6.0,55,0.00,,,0.00,meteohub,2013-05-17 14:49:00,
2013-05-17 10:54:00,63.1,45.9,30.01,NNW,333,2.0,7.0,52,0.00,,,0.00,meteohub,2013-05-17 14:54:00,
2013-05-17 10:59:00,63.7,45.9,30.02,East,89,1.0,7.0,51,0.00,,,0.00,meteohub,2013-05-17 14:59:00,
2013-05-17 11:04:00,63.3,45.9,30.02,East,90,0.0,6.0,52,0.00,,,0.00,meteohub,2013-05-17 15:04:00,
2013-05-17 11:09:00,63.9,45.9,30.02,East,98,2.0,6.0,52,0.00,,,0.00,meteohub,2013-05-17 15:09:00,
2013-05-17 11:14:00,64.0,46.0,30.02,NW,304,1.0,5.0,53,0.00,,,0.00,meteohub,2013-05-17 15:14:00,
2013-05-17 11:19:00,64.2,46.0,30.02,West,265,0.0,5.0,50,0.00,,,0.00,meteohub,2013-05-17 15:19:00,
2013-05-17 11:24:00,64.0,46.0,30.02,NNW,331,4.0,5.0,51,0.00,,,0.00,meteohub,2013-05-17 15:24:00,
2013-05-17 11:29:00,64.2,46.0,30.02,NNW,330,0.0,5.0,51,0.00,,,0.00,meteohub,2013-05-17 15:29:00,
2013-05-17 11:34:00,64.2,46.2,30.02,SE,126,4.0,6.0,51,0.00,,,0.00,meteohub,2013-05-17 15:34:00,
2013-05-17 11:39:00,64.4,46.2,30.02,South,191,0.0,6.0,51,0.00,,,0.00,meteohub,2013-05-17 15:39:00,
2013-05-17 11:44:00,65.1,46.2,30.03,NW,306,0.0,6.0,51,0.00,,,0.00,meteohub,2013-05-17 15:44:00,
2013-05-17 11:49:00,64.8,46.2,30.02,SE,128,0.0,7.0,50,0.00,,,0.00,meteohub,2013-05-17 15:49:00,
2013-05-17 11:54:00,64.2,46.2,30.03,SE,132,1.0,7.0,50,0.00,,,0.00,meteohub,2013-05-17 15:54:00,
2013-05-17 12:00:00,63.9,46.2,30.02,ESE,115,1.0,7.0,52,0.00,,,0.00,meteohub,2013-05-17 16:00:00,
2013-05-17 12:05:00,64.0,46.2,30.02,ESE,104,0.0,6.0,50,0.00,,,0.00,meteohub,2013-05-17 16:05:00,
2013-05-17 12:10:00,65.1,46.2,30.02,SSW,207,0.0,6.0,55,0.00,,,0.00,meteohub,2013-05-17 16:10:00,
2013-05-17 12:15:00,66.0,46.2,30.02,SE,128,0.0,6.0,49,0.00,,,0.00,meteohub,2013-05-17 16:15:00,
2013-05-17 12:20:00,66.4,46.2,30.02,North,11,2.0,6.0,49,0.00,,,0.00,meteohub,2013-05-17 16:20:00,
2013-05-17 12:25:00,66.2,46.2,30.02,NW,306,0.0,7.0,47,0.00,,,0.00,meteohub,2013-05-17 16:25:00,
2013-05-17 12:30:00,65.8,46.2,30.02,East,96,0.0,7.0,49,0.00,,,0.00,meteohub,2013-05-17 16:30:00,
2013-05-17 12:35:00,65.5,46.2,30.02,SE,129,1.0,6.0,51,0.00,,,0.00,meteohub,2013-05-17 16:35:00,
2013-05-17 12:40:00,65.7,46.2,30.03,NE,42,1.0,9.0,50,0.00,,,0.00,meteohub,2013-05-17 16:40:00,
2013-05-17 12:45:00,65.5,46.2,30.03,NNE,15,0.0,9.0,50,0.00,,,0.00,meteohub,2013-05-17 16:45:00,
2013-05-17 12:50:00,65.7,46.2,30.03,ESE,123,3.0,7.0,48,0.00,,,0.00,meteohub,2013-05-17 16:50:00,
2013-05-17 12:55:00,65.7,46.4,30.03,SE,146,4.0,7.0,48,0.00,,,0.00,meteohub,2013-05-17 16:55:00,
2013-05-17 13:00:00,64.6,46.4,30.03,SE,129,0.0,8.0,50,0.00,,,0.00,meteohub,2013-05-17 17:00:00,
2013-05-17 13:05:00,64.6,46.4,30.03,SE,133,0.0,8.0,52,0.00,,,0.00,meteohub,2013-05-17 17:05:00,
2013-05-17 13:10:00,64.6,46.4,30.03,SE,146,0.0,8.0,50,0.00,,,0.00,meteohub,2013-05-17 17:10:00,
2013-05-17 13:15:00,65.5,46.4,30.03,WSW,256,1.0,5.0,50,0.00,,,0.00,meteohub,2013-05-17 17:15:00,
2013-05-17 13:20:00,65.7,46.4,30.03,SSW,209,1.0,5.0,50,0.00,,,0.00,meteohub,2013-05-17 17:20:00,
2013-05-17 13:25:00,65.3,46.4,30.03,ESE,111,1.0,5.0,47,0.00,,,0.00,meteohub,2013-05-17 17:25:00,
2013-05-17 13:30:00,64.9,46.4,30.03,East,96,0.0,6.0,49,0.00,,,0.00,meteohub,2013-05-17 17:30:00,
2013-05-17 13:35:00,64.4,46.6,30.03,ESE,106,0.0,6.0,49,0.00,,,0.00,meteohub,2013-05-17 17:35:00,
2013-05-17 13:40:00,64.8,46.6,30.03,SE,135,0.0,6.0,49,0.00,,,0.00,meteohub,2013-05-17 17:40:00,
2013-05-17 13:45:00,65.8,46.6,30.03,SSE,162,2.0,7.0,49,0.00,,,0.00,meteohub,2013-05-17 17:45:00,
2013-05-17 13:50:00,66.0,46.8,30.03,SE,138,1.0,7.0,48,0.00,,,0.00,meteohub,2013-05-17 17:50:00,
2013-05-17 13:55:00,66.0,46.8,30.03,West,271,1.0,5.0,49,0.00,,,0.00,meteohub,2013-05-17 17:55:00,
2013-05-17 14:00:00,66.7,46.8,30.03,NNE,21,0.0,5.0,46,0.00,,,0.00,meteohub,2013-05-17 18:00:00,
2013-05-17 14:05:00,66.7,46.9,30.03,ESE,111,1.0,5.0,47,0.00,,,0.00,meteohub,2013-05-17 18:05:00,
2013-05-17 14:10:00,66.7,46.9,30.03,ESE,110,4.0,5.0,46,0.00,,,0.00,meteohub,2013-05-17 18:10:00,
2013-05-17 14:15:00,66.0,46.9,30.04,ESE,105,6.0,6.0,46,0.00,,,0.00,meteohub,2013-05-17 18:15:00,
2013-05-17 14:20:00,66.0,46.9,30.04,SE,136,0.0,7.0,49,0.00,,,0.00,meteohub,2013-05-17 18:20:00,
2013-05-17 14:25:00,66.4,46.9,30.04,SSE,151,5.0,7.0,48,0.00,,,0.00,meteohub,2013-05-17 18:25:00,
2013-05-17 14:30:00,65.8,46.9,30.04,SE,129,0.0,7.0,45,0.00,,,0.00,meteohub,2013-05-17 18:30:00,
2013-05-17 14:35:00,66.4,47.1,30.04,NW,317,1.0,6.0,47,0.00,,,0.00,meteohub,2013-05-17 18:35:00,
2013-05-17 14:40:00,67.5,46.9,30.04,SE,134,1.0,6.0,44,0.00,,,0.00,meteohub,2013-05-17 18:40:00,
2013-05-17 14:45:00,67.5,46.9,30.04,SE,134,0.0,4.0,46,0.00,,,0.00,meteohub,2013-05-17 18:45:00,
2013-05-17 14:50:00,67.8,46.9,30.04,West,266,1.0,4.0,46,0.00,,,0.00,meteohub,2013-05-17 18:50:00,
2013-05-17 14:55:00,67.8,47.1,30.04,ESE,123,1.0,4.0,43,0.00,,,0.00,meteohub,2013-05-17 18:55:00,
2013-05-17 15:00:00,67.3,47.1,30.04,ESE,117,0.0,4.0,44,0.00,,,0.00,meteohub,2013-05-17 19:00:00,
2013-05-17 15:05:00,66.9,47.1,30.04,ESE,115,1.0,6.0,44,0.00,,,0.00,meteohub,2013-05-17 19:05:00,
2013-05-17 15:10:00,66.7,47.1,30.04,SE,130,0.0,6.0,46,0.00,,,0.00,meteohub,2013-05-17 19:10:00,
2013-05-17 15:15:00,67.5,47.1,30.04,WNW,286,0.0,6.0,42,0.00,,,0.00,meteohub,2013-05-17 19:15:00,
2013-05-17 15:20:00,68.4,47.1,30.04,SSE,160,0.0,6.0,43,0.00,,,0.00,meteohub,2013-05-17 19:20:00,
2013-05-17 15:25:00,68.7,47.1,30.04,SE,143,5.0,6.0,44,0.00,,,0.00,meteohub,2013-05-17 19:25:00,
2013-05-17 15:30:00,69.1,47.1,30.04,East,82,1.0,6.0,43,0.00,,,0.00,meteohub,2013-05-17 19:30:00,
2013-05-17 15:35:00,69.3,47.1,30.04,ESE,123,0.0,6.0,42,0.00,,,0.00,meteohub,2013-05-17 19:35:00,
2013-05-17 15:40:00,69.6,47.1,30.04,SE,134,0.0,6.0,41,0.00,,,0.00,meteohub,2013-05-17 19:40:00,
2013-05-17 15:46:00,69.6,47.1,30.04,NE,36,0.0,7.0,42,0.00,,,0.00,meteohub,2013-05-17 19:46:00,
2013-05-17 15:51:00,70.0,47.1,30.04,SE,142,1.0,7.0,41,0.00,,,0.00,meteohub,2013-05-17 19:51:00,
2013-05-17 15:56:00,69.6,47.1,30.04,ESE,108,2.0,7.0,41,0.00,,,0.00,meteohub,2013-05-17 19:56:00,
2013-05-17 16:01:00,70.0,47.1,30.04,ESE,110,1.0,4.0,42,0.00,,,0.00,meteohub,2013-05-17 20:01:00,
2013-05-17 16:06:00,68.9,47.1,30.05,SE,142,1.0,7.0,41,0.00,,,0.00,meteohub,2013-05-17 20:06:00,
2013-05-17 16:11:00,68.2,47.1,30.04,ESE,121,0.0,7.0,42,0.00,,,0.00,meteohub,2013-05-17 20:11:00,
2013-05-17 16:16:00,68.0,47.1,30.04,ESE,121,0.0,7.0,43,0.00,,,0.00,meteohub,2013-05-17 20:16:00,
2013-05-17 16:21:00,68.5,47.3,30.05,ESE,111,0.0,5.0,41,0.00,,,0.00,meteohub,2013-05-17 20:21:00,
2013-05-17 16:26:00,68.5,47.1,30.05,ESE,111,0.0,2.0,41,0.00,,,0.00,meteohub,2013-05-17 20:26:00,
2013-05-17 16:31:00,68.9,47.1,30.05,ESE,118,0.0,2.0,42,0.00,,,0.00,meteohub,2013-05-17 20:31:00,
2013-05-17 16:36:00,69.3,47.1,30.05,ESE,115,1.0,3.0,40,0.00,,,0.00,meteohub,2013-05-17 20:36:00,
2013-05-17 16:41:00,69.1,47.3,30.05,SE,130,2.0,5.0,39,0.00,,,0.00,meteohub,2013-05-17 20:41:00,
2013-05-17 16:46:00,68.5,47.3,30.06,ESE,107,0.0,11.0,39,0.00,,,0.00,meteohub,2013-05-17 20:46:00,
2013-05-17 16:51:00,68.4,47.3,30.06,SE,129,0.0,11.0,41,0.00,,,0.00,meteohub,2013-05-17 20:51:00,
2013-05-17 16:56:00,67.8,47.3,30.06,SE,125,0.0,6.0,42,0.00,,,0.00,meteohub,2013-05-17 20:56:00,
2013-05-17 17:01:00,67.3,47.3,30.06,ESE,119,0.0,6.0,40,0.00,,,0.00,meteohub,2013-05-17 21:01:00,
2013-05-17 17:06:00,67.5,47.3,30.06,ESE,119,0.0,6.0,43,0.00,,,0.00,meteohub,2013-05-17 21:06:00,
2013-05-17 17:11:00,67.8,47.3,30.07,SE,137,4.0,6.0,39,0.00,,,0.00,meteohub,2013-05-17 21:11:00,
2013-05-17 17:16:00,67.8,47.3,30.07,South,174,0.0,6.0,40,0.00,,,0.00,meteohub,2013-05-17 21:16:00,
2013-05-17 17:21:00,67.6,47.3,30.07,South,172,0.0,6.0,42,0.00,,,0.00,meteohub,2013-05-17 21:21:00,
2013-05-17 17:26:00,67.3,47.3,30.07,South,172,0.0,6.0,41,0.00,,,0.00,meteohub,2013-05-17 21:26:00,
2013-05-17 17:31:00,67.3,47.3,30.08,NW,322,0.0,2.0,41,0.00,,,0.00,meteohub,2013-05-17 21:31:00,
2013-05-17 17:36:00,66.9,47.3,30.08,SE,136,1.0,7.0,40,0.00,,,0.00,meteohub,2013-05-17 21:36:00,
2013-05-17 17:41:00,66.7,47.3,30.08,SE,136,2.0,7.0,42,0.00,,,0.00,meteohub,2013-05-17 21:41:00,
2013-05-17 17:46:00,66.7,47.3,30.08,SE,136,0.0,5.0,41,0.00,,,0.00,meteohub,2013-05-17 21:46:00,
2013-05-17 17:51:00,66.9,47.3,30.08,ESE,109,0.0,8.0,40,0.00,,,0.00,meteohub,2013-05-17 21:51:00,
2013-05-17 17:56:00,67.3,47.3,30.08,SE,126,0.0,8.0,41,0.00,,,0.00,meteohub,2013-05-17 21:56:00,
2013-05-17 18:01:00,67.3,47.3,30.08,ESE,121,0.0,8.0,38,0.00,,,0.00,meteohub,2013-05-17 22:01:00,
2013-05-17 18:06:00,67.5,46.4,30.09,ESE,103,2.0,7.0,39,0.00,,,0.00,meteohub,2013-05-17 22:06:00,
2013-05-17 18:11:00,67.3,46.4,30.09,SE,128,1.0,7.0,39,0.00,,,0.00,meteohub,2013-05-17 22:11:00,
2013-05-17 18:16:00,67.3,46.4,30.09,ESE,113,0.0,5.0,39,0.00,,,0.00,meteohub,2013-05-17 22:16:00,
2013-05-17 18:21:00,67.3,46.4,30.09,ESE,113,1.0,5.0,40,0.00,,,0.00,meteohub,2013-05-17 22:21:00,
2013-05-17 18:26:00,66.9,46.6,30.09,North,0,0.0,8.0,39,0.00,,,0.00,meteohub,2013-05-17 22:26:00,
2013-05-17 18:31:00,66.7,46.6,30.09,WNW,296,0.0,8.0,39,0.00,,,0.00,meteohub,2013-05-17 22:31:00,
2013-05-17 18:36:00,66.6,46.6,30.10,South,184,0.0,8.0,39,0.00,,,0.00,meteohub,2013-05-17 22:36:00,
2013-05-17 18:41:00,66.0,46.6,30.10,ESE,115,0.0,3.0,38,0.00,,,0.00,meteohub,2013-05-17 22:41:00,
2013-05-17 18:46:00,65.7,46.6,30.10,ESE,115,0.0,4.0,39,0.00,,,0.00,meteohub,2013-05-17 22:46:00,
2013-05-17 18:51:00,65.5,46.6,30.10,ESE,115,0.0,4.0,40,0.00,,,0.00,meteohub,2013-05-17 22:51:00,
2013-05-17 18:56:00,65.5,46.6,30.10,ESE,117,0.0,5.0,38,0.00,,,0.00,meteohub,2013-05-17 22:56:00,
2013-05-17 19:01:00,65.3,46.6,30.10,ESE,117,0.0,5.0,39,0.00,,,0.00,meteohub,2013-05-17 23:01:00,
2013-05-17 19:06:00,65.1,47.3,30.11,ESE,117,1.0,5.0,39,0.00,,,0.00,meteohub,2013-05-17 23:06:00,
2013-05-17 19:11:00,64.9,47.3,30.11,ESE,117,0.0,2.0,40,0.00,,,0.00,meteohub,2013-05-17 23:11:00,
2013-05-17 19:16:00,64.8,47.3,30.12,ESE,117,0.0,2.0,40,0.00,,,0.00,meteohub,2013-05-17 23:16:00,
2013-05-17 19:21:00,64.4,47.3,30.12,ESE,117,0.0,2.0,42,0.00,,,0.00,meteohub,2013-05-17 23:21:00,
2013-05-17 19:26:00,64.2,47.3,30.12,ESE,122,0.0,2.0,42,0.00,,,0.00,meteohub,2013-05-17 23:26:00,
2013-05-17 19:31:00,64.0,47.3,30.12,ESE,122,0.0,2.0,42,0.00,,,0.00,meteohub,2013-05-17 23:31:00,
2013-05-17 19:36:00,63.7,47.5,30.12,ESE,122,0.0,2.0,42,0.00,,,0.00,meteohub,2013-05-17 23:36:00,
2013-05-17 19:41:00,63.3,47.5,30.12,ESE,122,0.0,0.0,42,0.00,,,0.00,meteohub,2013-05-17 23:41:00,
2013-05-17 19:46:00,63.1,47.5,30.12,ESE,122,0.0,0.0,43,0.00,,,0.00,meteohub,2013-05-17 23:46:00,
2013-05-17 19:51:00,63.0,47.5,30.13,ESE,122,0.0,0.0,43,0.00,,,0.00,meteohub,2013-05-17 23:51:00,
2013-05-17 19:56:00,62.6,47.5,30.13,ESE,122,0.0,1.0,43,0.00,,,0.00,meteohub,2013-05-17 23:56:00,
2013-05-17 20:02:00,62.4,47.5,30.13,ESE,122,0.0,1.0,45,0.00,,,0.00,meteohub,2013-05-18 00:02:00,
2013-05-17 20:07:00,61.9,47.5,30.14,ESE,123,0.0,1.0,45,0.00,,,0.00,meteohub,2013-05-18 00:07:00,
2013-05-17 20:12:00,61.3,47.5,30.14,ESE,123,0.0,1.0,47,0.00,,,0.00,meteohub,2013-05-18 00:12:00,
2013-05-17 20:17:00,60.6,47.5,30.14,ESE,123,0.0,1.0,47,0.00,,,0.00,meteohub,2013-05-18 00:17:00,
2013-05-17 20:22:00,60.1,48.4,30.15,ESE,122,0.0,1.0,49,0.00,,,0.00,meteohub,2013-05-18 00:22:00,
2013-05-17 20:27:00,59.5,47.5,30.15,ESE,123,0.0,0.0,49,0.00,,,0.00,meteohub,2013-05-18 00:27:00,
2013-05-17 20:32:00,59.0,47.5,30.15,ESE,122,0.0,0.0,51,0.00,,,0.00,meteohub,2013-05-18 00:32:00,
2013-05-17 20:37:00,58.5,47.5,30.16,ESE,122,0.0,0.0,53,0.00,,,0.00,meteohub,2013-05-18 00:37:00,
2013-05-17 20:42:00,57.9,47.5,30.16,ESE,122,0.0,0.0,53,0.00,,,0.00,meteohub,2013-05-18 00:42:00,
2013-05-17 20:47:00,57.4,47.5,30.16,ESE,123,0.0,0.0,54,0.00,,,0.00,meteohub,2013-05-18 00:47:00,
2013-05-17 20:52:00,57.0,47.5,30.16,ESE,123,0.0,0.0,56,0.00,,,0.00,meteohub,2013-05-18 00:52:00,
2013-05-17 20:57:00,56.7,47.5,30.17,ESE,122,0.0,0.0,58,0.00,,,0.00,meteohub,2013-05-18 00:57:00,
2013-05-17 21:02:00,56.1,47.5,30.17,ESE,122,0.0,0.0,59,0.00,,,0.00,meteohub,2013-05-18 01:02:00,
2013-05-17 21:07:00,55.9,47.5,30.17,ESE,123,0.0,0.0,59,0.00,,,0.00,meteohub,2013-05-18 01:07:00,
2013-05-17 21:12:00,55.6,47.5,30.17,ESE,123,0.0,0.0,59,0.00,,,0.00,meteohub,2013-05-18 01:12:00,
2013-05-17 21:17:00,55.0,47.5,30.17,ESE,122,0.0,0.0,61,0.00,,,0.00,meteohub,2013-05-18 01:17:00,
2013-05-17 21:22:00,54.9,47.5,30.18,ESE,123,0.0,0.0,61,0.00,,,0.00,meteohub,2013-05-18 01:22:00,
2013-05-17 21:27:00,54.3,47.5,30.18,ESE,123,0.0,0.0,62,0.00,,,0.00,meteohub,2013-05-18 01:27:00,
2013-05-17 21:32:00,54.0,47.5,30.18,ESE,122,0.0,0.0,64,0.00,,,0.00,meteohub,2013-05-18 01:32:00,
2013-05-17 21:37:00,53.4,47.5,30.19,ESE,123,0.0,0.0,65,0.00,,,0.00,meteohub,2013-05-18 01:37:00,
2013-05-17 21:42:00,53.1,47.5,30.19,ESE,123,0.0,0.0,65,0.00,,,0.00,meteohub,2013-05-18 01:42:00,
2013-05-17 21:47:00,52.5,47.5,30.19,ESE,123,0.0,0.0,65,0.00,,,0.00,meteohub,2013-05-18 01:47:00,
2013-05-17 21:52:00,52.3,47.3,30.19,ESE,123,0.0,0.0,66,0.00,,,0.00,meteohub,2013-05-18 01:52:00,
2013-05-17 21:57:00,52.0,47.3,30.19,ESE,123,0.0,0.0,66,0.00,,,0.00,meteohub,2013-05-18 01:57:00,
2013-05-17 22:02:00,51.6,47.3,30.20,ESE,123,0.0,0.0,67,0.00,,,0.00,meteohub,2013-05-18 02:02:00,
2013-05-17 22:07:00,51.4,47.3,30.19,ESE,122,0.0,0.0,67,0.00,,,0.00,meteohub,2013-05-18 02:07:00,
2013-05-17 22:12:00,51.1,47.3,30.19,ESE,122,0.0,0.0,68,0.00,,,0.00,meteohub,2013-05-18 02:12:00,
2013-05-17 22:17:00,50.7,48.2,30.19,ESE,123,0.0,0.0,68,0.00,,,0.00,meteohub,2013-05-18 02:17:00,
2013-05-17 22:22:00,50.5,47.3,30.20,ESE,123,0.0,0.0,69,0.00,,,0.00,meteohub,2013-05-18 02:22:00,
2013-05-17 22:27:00,50.5,48.2,30.20,ESE,122,0.0,0.0,70,0.00,,,0.00,meteohub,2013-05-18 02:27:00,
2013-05-17 22:32:00,50.2,48.0,30.20,ESE,122,0.0,0.0,71,0.00,,,0.00,meteohub,2013-05-18 02:32:00,
2013-05-17 22:37:00,50.0,48.0,30.20,ESE,123,0.0,0.0,72,0.00,,,0.00,meteohub,2013-05-18 02:37:00,
2013-05-17 22:42:00,49.6,48.0,30.20,ESE,122,0.0,0.0,72,0.00,,,0.00,meteohub,2013-05-18 02:42:00,
2013-05-17 22:47:00,49.5,47.8,30.20,ESE,122,0.0,0.0,72,0.00,,,0.00,meteohub,2013-05-18 02:47:00,
2013-05-17 22:52:00,49.3,47.8,30.20,ESE,122,0.0,0.0,73,0.00,,,0.00,meteohub,2013-05-18 02:52:00,
2013-05-17 22:57:00,48.9,47.8,30.20,ESE,123,0.0,0.0,74,0.00,,,0.00,meteohub,2013-05-18 02:57:00,
2013-05-17 23:02:00,48.7,46.9,30.20,ESE,123,0.0,0.0,73,0.00,,,0.00,meteohub,2013-05-18 03:02:00,
2013-05-17 23:07:00,48.6,46.9,30.21,ESE,123,0.0,0.0,74,0.00,,,0.00,meteohub,2013-05-18 03:07:00,
2013-05-17 23:12:00,48.4,46.9,30.21,ESE,123,0.0,0.0,74,0.00,,,0.00,meteohub,2013-05-18 03:12:00,
2013-05-17 23:17:00,48.2,46.9,30.21,ESE,123,0.0,0.0,75,0.00,,,0.00,meteohub,2013-05-18 03:17:00,
2013-05-17 23:22:00,47.8,46.8,30.21,ESE,122,0.0,0.0,76,0.00,,,0.00,meteohub,2013-05-18 03:22:00,
2013-05-17 23:27:00,47.8,46.8,30.21,ESE,122,0.0,0.0,77,0.00,,,0.00,meteohub,2013-05-18 03:27:00,
2013-05-17 23:32:00,47.7,46.8,30.21,ESE,123,0.0,0.0,77,0.00,,,0.00,meteohub,2013-05-18 03:32:00,
2013-05-17 23:37:00,47.5,46.8,30.21,ESE,123,0.0,0.0,78,0.00,,,0.00,meteohub,2013-05-18 03:37:00,
2013-05-17 23:42:00,47.5,46.6,30.22,ESE,123,0.0,0.0,78,0.00,,,0.00,meteohub,2013-05-18 03:42:00,
2013-05-17 23:47:00,47.1,46.6,30.22,ESE,123,0.0,0.0,79,0.00,,,0.00,meteohub,2013-05-18 03:47:00,
2013-05-17 23:52:00,46.9,46.6,30.22,ESE,123,0.0,0.0,79,0.00,,,0.00,meteohub,2013-05-18 03:52:00,
2013-05-17 23:57:00,46.9,46.4,30.22,ESE,122,0.0,0.0,80,0.00,,,0.00,meteohub,2013-05-18 03:57:00,